Tracking 28790 objects as of 19-Apr-2024
HD Live streaming from Space Station
objects crossing your sky now

COSMOS 2251 DEB

Track COSMOS 2251 DEB now!
10-day predictions


NORAD ID: 36420
Int'l Code: 1993-036AZT
Perigee: 766.0 km
Apogee: 793.0 km
Inclination: 74.0 °
Period: 100.3 minutes
Semi major axis: 7150 km
RCS: 0.0071 m2 (small)
Launch date: June 16, 1993
Source: Commonwealth of Independent States (former USSR) (CIS)
Launch site: PLESETSK MISSILE AND SPACE COMPLEX (PKMTR)

Note: This is SATELLITE DEBRIS
Your satellite tracking list
Your tracking list is empty




NASA's NSSDC Master Catalog

Two Line Element Set (TLE):
1 36420U 93036AZT 24107.29785758  .00000891  00000-0  31618-3 0  9991
2 36420  74.0362 307.6423 0018883 189.0803 345.8280 14.35810685763435
Source of the keplerian elements: AFSPC